Weather reports worldwide

Advertisment
St. James's Park, United Kingdom (3770): temperature & dewpoint: 15.01.2020 06:00:00 - 21.01.2020 06:00:00 (GMT)St. James's Park, United Kingdom (3770): temperature -20cm & temperature -100cm: 15.01.2020 06:00:00 - 21.01.2020 06:00:00 (GMT)St. James's Park, United Kingdom (3770): precipitation: 15.01.2020 06:00:00 - 21.01.2020 06:00:00 (GMT)
Date & Time tt [°C] td [°C] tt -20cm [°C] tt -100cm [°C] rr [mm]
21.01.2020 06:00:00 -0,4 -0,7 - - 0,0
21.01.2020 05:00:00 0,2 -0,1 - - 0,0
21.01.2020 04:00:00 0,2 -0,1 - - 0,0
21.01.2020 03:00:00 0,0 -0,5 - - 0,0
21.01.2020 02:00:00 0,5 0,0 - - 0,0
21.01.2020 01:00:00 0,6 0,0 - - 0,0
21.01.2020 00:00:00 0,9 0,3 - - 0,0
20.01.2020 23:00:00 1,3 0,6 - - 0,0
20.01.2020 22:00:00 2,0 1,1 - - 0,0
20.01.2020 21:00:00 2,1 0,9 - - 0,0
20.01.2020 20:00:00 2,9 1,0 - - 0,0
20.01.2020 19:00:00 3,2 0,8 - - 0,0
20.01.2020 18:00:00 3,8 1,3 - - 0,0
20.01.2020 17:00:00 4,6 1,3 - - 0,0
20.01.2020 16:00:00 6,1 1,2 - - 0,0
20.01.2020 15:00:00 7,2 0,8 - - 0,0
20.01.2020 14:00:00 6,9 1,7 - - 0,0
20.01.2020 13:00:00 5,5 1,6 - - 0,0
20.01.2020 12:00:00 5,7 1,7 - - 0,0
20.01.2020 11:00:00 4,4 0,7 - - 0,0
20.01.2020 10:00:00 4,3 0,6 - - 0,0
20.01.2020 09:00:00 3,6 0,5 4,4 8,7 0,0
20.01.2020 08:00:00 2,7 0,5 - - 0,0
20.01.2020 07:00:00 2,3 0,6 - - 0,0
20.01.2020 06:00:00 1,8 0,7 - - 0,0
20.01.2020 05:00:00 1,3 -0,6 - - 0,0
20.01.2020 04:00:00 2,9 0,0 - - 0,0
20.01.2020 03:00:00 2,9 0,4 - - 0,0
20.01.2020 02:00:00 3,2 0,4 - - 0,0
20.01.2020 01:00:00 3,2 1,0 - - 0,0
20.01.2020 00:00:00 2,7 1,4 - - 0,0
19.01.2020 23:00:00 2,0 1,2 - - 0,0
19.01.2020 22:00:00 1,4 0,1 - - 0,0
19.01.2020 21:00:00 2,2 0,1 - - 0,0
19.01.2020 20:00:00 4,9 0,2 - - 0,0
19.01.2020 19:00:00 4,7 0,4 - - 0,0
19.01.2020 18:00:00 5,4 0,8 - - 0,0
19.01.2020 17:00:00 6,5 1,1 - - 0,0
19.01.2020 16:00:00 7,3 1,2 - - 0,0
19.01.2020 15:00:00 7,4 1,5 - - 0,0
19.01.2020 14:00:00 7,5 1,7 - - 0,0
19.01.2020 13:00:00 7,1 1,1 - - 0,0
19.01.2020 12:00:00 7,8 1,9 - - 0,0
19.01.2020 11:00:00 5,7 0,7 - - 0,0
19.01.2020 10:00:00 3,8 0,3 - - 0,0
19.01.2020 09:00:00 3,1 -0,8 4,7 9,0 0,0
19.01.2020 08:00:00 3,3 -0,7 - - 0,0
19.01.2020 07:00:00 3,0 -0,9 - - 0,0
19.01.2020 06:00:00 3,0 -0,6 - - 0,0
19.01.2020 05:00:00 2,6 -0,4 - - 0,0
19.01.2020 04:00:00 2,5 -0,4 - - 0,0
19.01.2020 03:00:00 2,8 -0,1 - - 0,0
19.01.2020 02:00:00 3,8 1,3 - - 0,0
19.01.2020 01:00:00 2,6 0,8 - - 0,0
19.01.2020 00:00:00 3,7 0,5 - - 0,0
18.01.2020 23:00:00 4,4 0,9 - - 0,0
18.01.2020 22:00:00 4,8 0,9 - - 0,0
18.01.2020 21:00:00 5,0 1,2 - - 0,0
18.01.2020 20:00:00 5,5 0,8 - - 0,0
18.01.2020 19:00:00 5,4 0,6 - - 0,0
18.01.2020 18:00:00 6,2 1,0 - - 0,0
18.01.2020 17:00:00 6,5 0,8 - - 0,0
18.01.2020 16:00:00 7,1 0,5 - - 0,0
18.01.2020 15:00:00 7,5 0,2 - - 0,0
18.01.2020 14:00:00 7,8 -0,1 - - 0,0
18.01.2020 13:00:00 7,4 1,2 - - 0,0
18.01.2020 12:00:00 6,8 1,2 - - 0,0
18.01.2020 11:00:00 6,0 2,2 - - 0,2
18.01.2020 10:00:00 3,6 1,4 - - 0,0
18.01.2020 09:00:00 2,1 0,8 7,7 9,0 0,0
18.01.2020 08:00:00 2,0 0,8 - - 0,0
18.01.2020 07:00:00 1,8 1,2 - - 0,0
18.01.2020 06:00:00 1,3 0,6 - - 0,0
18.01.2020 05:00:00 1,6 0,8 - - 0,0
18.01.2020 04:00:00 2,2 1,0 - - 0,0
18.01.2020 03:00:00 2,9 1,4 - - 0,0
18.01.2020 02:00:00 2,6 1,1 - - 0,0
18.01.2020 01:00:00 3,3 1,6 - - 0,0
18.01.2020 00:00:00 3,3 1,4 - - 0,0
17.01.2020 23:00:00 3,8 1,5 - - 0,0
17.01.2020 22:00:00 4,2 1,5 - - 0,0
17.01.2020 21:00:00 4,7 1,7 - - 0,0
17.01.2020 20:00:00 5,3 2,5 - - 0,0
17.01.2020 19:00:00 5,4 2,3 - - 0,0
17.01.2020 18:00:00 5,9 2,0 - - 0,0
17.01.2020 17:00:00 6,7 2,2 - - 0,0
17.01.2020 16:00:00 7,4 2,0 - - 0,0
17.01.2020 15:00:00 7,9 1,7 - - 0,0
17.01.2020 14:00:00 8,1 2,1 - - 0,0
17.01.2020 13:00:00 8,1 2,9 - - 0,0
17.01.2020 12:00:00 8,9 3,7 - - 0,0
17.01.2020 11:00:00 9,2 5,4 - - 0,0
17.01.2020 10:00:00 9,3 5,7 - - 0,0
17.01.2020 09:00:00 8,8 7,1 8,4 9,0 0,0
17.01.2020 08:00:00 8,7 6,9 - - 0,0
17.01.2020 07:00:00 9,0 6,6 - - 1,6
17.01.2020 06:00:00 10,1 8,5 - - 1,0
17.01.2020 05:00:00 10,1 8,5 - - 0,0
17.01.2020 04:00:00 10,4 8,8 - - 0,0
17.01.2020 03:00:00 10,6 9,3 - - 0,0
17.01.2020 02:00:00 10,5 9,3 - - 0,0
17.01.2020 01:00:00 10,4 9,2 - - 0,0
17.01.2020 00:00:00 10,7 9,5 - - 0,6
16.01.2020 23:00:00 10,9 9,5 - - 0,8
16.01.2020 22:00:00 11,3 9,6 - - 0,2
16.01.2020 21:00:00 11,3 9,4 - - 0,4
16.01.2020 20:00:00 11,2 9,2 - - 1,2
16.01.2020 19:00:00 12,6 8,0 - - 0,0
16.01.2020 18:00:00 12,3 7,5 - - 0,0
16.01.2020 17:00:00 12,1 7,2 - - 0,2
16.01.2020 16:00:00 12,1 6,9 - - 0,0
16.01.2020 15:00:00 11,4 7,0 - - 0,0
16.01.2020 14:00:00 11,2 6,8 - - 0,0
16.01.2020 13:00:00 11,2 7,0 - - 0,0
16.01.2020 12:00:00 10,5 6,5 - - 0,0
16.01.2020 11:00:00 9,5 5,9 - - 0,0
16.01.2020 10:00:00 9,4 6,2 - - 0,0
16.01.2020 09:00:00 8,6 6,0 8,0 9,0 0,0
16.01.2020 08:00:00 7,1 5,4 - - 0,0
16.01.2020 07:00:00 6,8 5,0 - - 0,0
16.01.2020 06:00:00 7,0 5,1 - - 0,0
16.01.2020 05:00:00 7,1 5,1 - - 0,0
16.01.2020 04:00:00 7,0 4,6 - - 0,0
16.01.2020 03:00:00 7,5 5,4 - - 0,0
16.01.2020 02:00:00 7,2 5,2 - - 0,0
16.01.2020 01:00:00 6,9 4,5 - - 0,0
16.01.2020 00:00:00 7,5 4,7 - - 0,0
15.01.2020 23:00:00 7,5 4,2 - - 0,0
15.01.2020 22:00:00 7,4 3,9 - - 0,0
15.01.2020 21:00:00 7,5 3,7 - - 0,0
15.01.2020 20:00:00 7,8 3,7 - - 0,0
15.01.2020 19:00:00 8,0 3,5 - - 0,0
15.01.2020 18:00:00 8,2 3,6 - - 0,0
15.01.2020 17:00:00 8,5 4,7 - - 0,0
15.01.2020 16:00:00 9,5 3,7 - - 0,0
15.01.2020 15:00:00 9,5 5,7 - - 0,0
15.01.2020 14:00:00 9,5 5,8 - - 0,0
15.01.2020 13:00:00 8,8 5,3 - - 0,0
15.01.2020 12:00:00 7,8 5,0 - - 0,0
15.01.2020 11:00:00 6,8 5,2 - - 0,0
15.01.2020 10:00:00 6,8 4,8 - - 0,8
15.01.2020 09:00:00 7,1 5,6 8,7 9,0 1,2
15.01.2020 08:00:00 7,6 6,3 - - 1,0
15.01.2020 07:00:00 8,0 7,0 - - 1,6
15.01.2020 06:00:00 8,2 7,5 - - 1,2

tt = temperature
td = dewpoint
tt -20cm = temperature -20cm
tt -100cm = temperature -100cm
rr = precipitation

Next stations